Weather History for Branson, MO

Change the Weather History Date:

Tuesday, September 24, 2013

  Actual Average (KHRO) Record (KHRO)
Temperature  
Mean Temperature 68 °F 66 °F  
Max Temperature 77 °F 77 °F 99 °F (1926)
Min Temperature 59 °F 55 °F 33 °F (1989)
Degree Days  
Heating Degree Days 0 3  
Month to date heating degree days 22  
Since 1 July heating degree days 23  
Cooling Degree Days 3 3  
Month to date cooling degree days 151  
Year to date cooling degree days 1362  
Growing Degree Days 18 (Base 50)    
Moisture  
Dew Point 56 °F    
Average Humidity 72    
Maximum Humidity 88    
Minimum Humidity 44    
Precipitation  
Precipitation 0.00 in 0.14 in 4.75 in (1941)
Month to date precipitation 3.39  
Year to date precipitation 32.35  
Snow  
Snow 0.00 in 0.00 in - ()
Month to date snowfall 0.0  
Since 1 July snowfall 0.0  
Since 1 September snowfall 0.0  
Snow Depth -    
Sea Level Pressure  
Sea Level Pressure 29.89 in    
Wind  
Wind Speed 4 mph (SSW)    
Max Wind Speed 9 mph    
Max Gust Speed -    
Visibility 10 miles    
Events      
T = Trace of Precipitation, MM = Missing Value Source: NWS Daily Summary

Daily Weather History Graph

Daily Weather History Graph

Search for Another Location

Airport:

Trip Planner

Search our weather history database for the weather conditions in past years. The results will help you decide how hot, cold, wet, or windy it might be!

Date:

Astronomy

Sep. 24, 2013 Rise Set
Actual Time 7:02 AM CDT 7:06 PM CDT
Civil Twilight 6:36 AM CDT 7:31 PM CDT
Nautical Twilight 6:06 AM CDT 8:01 PM CDT
Astronomical Twilight 5:36 AM CDT 8:32 PM CDT
Moon 10:32 PM CDT (9/24) 12:09 PM CDT (9/24)
Length of Visible Light 12h 55m
Length of Day
12h 03m
Waning Gibbous, 73% of the Moon is Illuminated
Sep 24
Waning Gibbous
Sep 26
Last Quarter
Oct 4
New
Oct 11
First Quarter
Oct 18
Full

Hourly Weather History & Observations

Time (CDT) Temp. Dew Point Humidity Pressure Visibility Wind Dir Wind Speed Gust Speed Precip Events Conditions
12:15 AM 62.6 °F 53.6 °F 72% 29.95 in 10.0 mi SSE 3.5 mph - N/A   Clear
12:35 AM 62.6 °F 55.4 °F 77% 29.95 in 10.0 mi SSE 4.6 mph - N/A   Clear
12:55 AM 60.8 °F 55.4 °F 82% 29.94 in 10.0 mi SSE 5.8 mph - N/A   Clear
1:15 AM 60.8 °F 55.4 °F 82% 29.93 in 10.0 mi Calm Calm - N/A   Clear
1:35 AM 62.6 °F 55.4 °F 77% 29.93 in 10.0 mi Calm Calm - N/A   Partly Cloudy
1:55 AM 62.6 °F 55.4 °F 77% 29.93 in 10.0 mi Calm Calm - N/A   Mostly Cloudy
2:35 AM 60.8 °F 55.4 °F 82% 29.92 in 10.0 mi SSE 5.8 mph - N/A   Clear
2:55 AM 60.8 °F 55.4 °F 82% 29.92 in 10.0 mi SSE 4.6 mph - N/A   Clear
3:15 AM 60.8 °F 55.4 °F 82% 29.92 in 10.0 mi SSE 5.8 mph - N/A   Mostly Cloudy
3:35 AM 62.6 °F 55.4 °F 77% 29.92 in 10.0 mi SSE 3.5 mph - N/A   Overcast
3:55 AM 62.6 °F 55.4 °F 77% 29.92 in 10.0 mi SSE 5.8 mph - N/A   Mostly Cloudy
4:35 AM 62.6 °F 55.4 °F 77% 29.91 in 10.0 mi SSE 5.8 mph - N/A   Mostly Cloudy
4:55 AM 60.8 °F 55.4 °F 82% 29.91 in 10.0 mi SSE 6.9 mph - N/A   Overcast
5:15 AM 60.8 °F 55.4 °F 82% 29.90 in 10.0 mi SSE 4.6 mph - N/A   Overcast
5:35 AM 60.8 °F 55.4 °F 82% 29.90 in 10.0 mi SSE 3.5 mph - N/A   Mostly Cloudy
5:55 AM 60.8 °F 55.4 °F 82% 29.90 in 10.0 mi SSE 4.6 mph - N/A   Mostly Cloudy
6:15 AM 60.8 °F 55.4 °F 82% 29.90 in 10.0 mi SSE 5.8 mph - N/A   Partly Cloudy
6:35 AM 59.0 °F 53.6 °F 82% 29.91 in 10.0 mi Calm Calm - N/A   Partly Cloudy
6:45 AM 59.0 °F 53.6 °F 82% 29.90 in 10.0 mi Calm Calm - N/A   Partly Cloudy
7:46 AM 59.0 °F 55.4 °F 88% 29.90 in 10.0 mi Calm Calm - N/A   Partly Cloudy
8:45 AM 66.2 °F 55.4 °F 68% 29.89 in 10.0 mi Calm Calm - N/A   Clear
9:45 AM 71.6 °F 55.4 °F 57% 29.90 in 10.0 mi WSW 6.9 mph - N/A   Clear
10:45 AM 73.4 °F 55.4 °F 53% 29.90 in 10.0 mi West 6.9 mph - N/A   Clear
11:45 AM 73.4 °F 55.4 °F 53% 29.89 in 10.0 mi WSW 5.8 mph - N/A   Clear
12:45 PM 75.2 °F 53.6 °F 47% 29.88 in 10.0 mi WSW 6.9 mph - N/A   Clear
1:45 PM 77.0 °F 53.6 °F 44% 29.87 in 10.0 mi SW 8.1 mph - N/A   Partly Cloudy
2:45 PM 77.0 °F 55.4 °F 47% 29.86 in 10.0 mi West 9.2 mph - N/A   Partly Cloudy
3:45 PM 77.0 °F 55.4 °F 47% 29.86 in 10.0 mi SW 8.1 mph - N/A   Mostly Cloudy
4:45 PM 75.2 °F 55.4 °F 50% 29.86 in 10.0 mi WNW 8.1 mph - N/A   Scattered Clouds
5:46 PM 73.4 °F 55.4 °F 53% 29.86 in 10.0 mi WNW 9.2 mph - N/A   Scattered Clouds
6:45 PM 71.6 °F 55.4 °F 57% 29.87 in 10.0 mi NW 5.8 mph - N/A   Scattered Clouds
7:50 PM 68.0 °F 57.2 °F 68% 29.86 in 10.0 mi West 4.6 mph - N/A   Scattered Clouds
8:49 PM 66.2 °F 57.2 °F 73% 29.87 in 10.0 mi West 4.6 mph - N/A   Clear
9:15 PM 66.2 °F 57.2 °F 73% 29.87 in 10.0 mi Calm Calm - N/A   Clear
9:35 PM 64.4 °F 57.2 °F 77% 29.87 in 10.0 mi Calm Calm - N/A   Partly Cloudy
9:55 PM 64.4 °F 57.2 °F 77% 29.87 in 10.0 mi Calm Calm - N/A   Scattered Clouds
10:15 PM 62.6 °F 57.2 °F 82% 29.87 in 10.0 mi Calm Calm - N/A   Mostly Cloudy
10:35 PM 62.6 °F 57.2 °F 82% 29.87 in 10.0 mi Calm Calm - N/A   Scattered Clouds
10:55 PM 62.6 °F 55.4 °F 77% 29.87 in 10.0 mi Calm Calm - N/A   Mostly Cloudy
11:15 PM 62.6 °F 55.4 °F 77% 29.87 in 10.0 mi Calm Calm - N/A   Mostly Cloudy
11:35 PM 62.6 °F 55.4 °F 77% 29.87 in 10.0 mi Calm Calm - N/A   Scattered Clouds
11:55 PM 62.6 °F 57.2 °F 82% 29.87 in 10.0 mi Calm Calm - N/A   Partly Cloudy